Location: Montr�al
(45.5000°N, 73.5830°W)
Time: 02:17:03
(UTC-04:00)

Cosmos 1151 Rocket - Visible Passes

Search period start: 24 March 2017 00:00
Search period end: 03 April 2017 00:00
Orbit: 594 x 615 km, 82.5° (Epoch: 22 March)

Date Brightness Start Highest point End Pass type
(mag) Time Alt. Az. Time Alt. Az. Time Alt. Az.
27 Mar 6.2 23:39:47 10° N 23:39:47 10° N 23:39:47 10° N visible
28 Mar 6.2 23:52:12 11° N 23:52:12 11° N 23:52:27 10° N visible
30 Mar 6.2 00:04:37 12° NNW 00:04:37 12° NNW 00:04:56 10° NNW visible
30 Mar 5.7 22:40:11 12° NNE 22:40:11 12° NNE 22:40:33 10° NNE visible
31 Mar 6.2 00:17:00 11° NNW 00:17:00 11° NNW 00:17:10 10° NNW visible
31 Mar 5.5 22:52:31 16° NNE 22:52:31 16° NNE 22:53:28 10° N visible
01 Apr 5.4 23:04:50 20° N 23:04:50 20° N 23:06:14 10° N visible
02 Apr 5.4 21:40:20 12° NE 21:40:20 12° NE 21:40:42 10° NE visible
02 Apr 5.4 23:17:08 21° NNW 23:17:08 21° NNW 23:18:52 10° N visible
